Location: Gülübeli Geçidi
(36.8411°N, 29.7411°E)
Time: 11:10:34
(UTC+00:00)

CZ-4B R/B - Pass Details

Date: 15 May 2026
Orbit: 700 x 797 km, 98.9° (Epoch: 8 June)

Event Time Altitude Azimuth Distance (km) Brightness Sun altitude
Exits shadow 19:43:25 86° 28° (NNE) 713 3.2 -25.8°
Drops below altitude 10° 19:48:09 10° 347° (NNW) 2,203 6.7 -26.4°
Sets 19:50:27 0° 348° (NNW) 3,139 7.8 -26.6°
